Location: Bukit Nyuki
(2.5885°N, 113.7476°E)
Time: 05:20:17
(UTC+00:00)

H-2A R/B - Pass Details

Date: 18 May 2021
Orbit: 501 x 538 km, 97.3° (Epoch: 12 March)

Event Time Altitude Azimuth Distance (km) Brightness Sun altitude
Rises 21:06:54 0° 20° (NNE) 2,643 6.9 -16.6°
Reaches altitude 10° 21:09:01 10° 25° (NNE) 1,763 6.1 -16.1°
Maximum altitude 21:12:43 49° 101° (E) 686 3.6 -15.2°
Drops below altitude 10° 21:16:27 10° 177° (S) 1,784 5.2 -14.4°
Sets 21:18:37 0° 182° (S) 2,680 6.1 -13.9°
